TimeCDT,TemperatureF,Dew PointF,Humidity,Sea Level PressureIn,VisibilityMPH,Wind Direction,Wind SpeedMPH,Gust SpeedMPH,PrecipitationIn,Events,Conditions,WindDirDegrees,DateUTC
12:15 AM,63.7,57.6,80,30.01,10.0,Calm,Calm,-,N/A,,Clear,0,2013-08-03 05:15:00
12:35 AM,62.6,57.7,84,30.01,10.0,Calm,Calm,-,N/A,,Clear,0,2013-08-03 05:35:00
12:55 AM,61.3,57.9,89,30.02,10.0,Calm,Calm,-,N/A,,Clear,0,2013-08-03 05:55:00
1:15 AM,60.4,56.8,88,30.02,10.0,Calm,Calm,-,N/A,,Clear,0,2013-08-03 06:15:00
1:35 AM,59.9,56.3,88,30.02,10.0,Calm,Calm,-,N/A,,Clear,0,2013-08-03 06:35:00
1:55 AM,59.2,56.3,90,30.02,10.0,Calm,Calm,-,N/A,,Clear,0,2013-08-03 06:55:00
2:15 AM,58.8,55.9,90,30.02,10.0,Calm,Calm,-,N/A,,Clear,0,2013-08-03 07:15:00
2:35 AM,59.5,56.1,88,30.03,10.0,Calm,Calm,-,N/A,,Clear,0,2013-08-03 07:35:00
2:55 AM,56.8,54.3,91,30.03,10.0,Calm,Calm,-,N/A,,Clear,0,2013-08-03 07:55:00
3:15 AM,57.0,54.5,91,30.04,10.0,Calm,Calm,-,N/A,,Clear,0,2013-08-03 08:15:00
3:35 AM,56.5,53.8,91,30.04,10.0,Calm,Calm,-,N/A,,Clear,0,2013-08-03 08:35:00
3:55 AM,56.3,53.8,91,30.04,10.0,Calm,Calm,-,N/A,,Clear,0,2013-08-03 08:55:00
4:15 AM,55.4,54.0,95,30.05,10.0,Calm,Calm,-,N/A,,Clear,0,2013-08-03 09:15:00
4:35 AM,55.2,53.1,92,30.05,10.0,Calm,Calm,-,N/A,,Clear,0,2013-08-03 09:35:00
4:55 AM,55.0,53.1,93,30.05,10.0,Calm,Calm,-,N/A,,Clear,0,2013-08-03 09:55:00
5:15 AM,54.3,52.3,93,30.05,10.0,East,3.5,-,N/A,,Clear,80,2013-08-03 10:15:00
5:35 AM,54.9,52.7,92,30.05,10.0,Calm,Calm,-,N/A,,Clear,0,2013-08-03 10:35:00
5:55 AM,53.8,52.0,94,30.06,10.0,Calm,Calm,-,N/A,,Clear,0,2013-08-03 10:55:00
6:15 AM,53.4,51.8,94,30.07,10.0,Calm,Calm,-,N/A,,Clear,0,2013-08-03 11:15:00
6:35 AM,53.8,51.8,93,30.07,10.0,Calm,Calm,-,N/A,,Clear,0,2013-08-03 11:35:00
6:55 AM,54.7,52.7,93,30.08,10.0,Calm,Calm,-,N/A,,Clear,0,2013-08-03 11:55:00
7:15 AM,56.7,54.5,92,30.08,10.0,Calm,Calm,-,N/A,,Clear,0,2013-08-03 12:15:00
7:35 AM,59.2,55.6,88,30.09,10.0,Calm,Calm,-,N/A,,Clear,0,2013-08-03 12:35:00
7:55 AM,60.8,56.5,86,30.10,10.0,NNW,3.5,-,N/A,,Clear,330,2013-08-03 12:55:00
8:15 AM,62.2,57.0,83,30.09,10.0,NNW,6.9,-,N/A,,Clear,330,2013-08-03 13:15:00
8:35 AM,63.7,56.3,77,30.10,10.0,NW,5.8,-,N/A,,Clear,310,2013-08-03 13:35:00
8:55 AM,65.5,55.8,71,30.09,10.0,Calm,Calm,-,N/A,,Clear,0,2013-08-03 13:55:00
9:15 AM,66.9,56.7,70,30.09,10.0,Calm,Calm,-,N/A,,Clear,0,2013-08-03 14:15:00
9:35 AM,68.7,57.2,67,30.10,10.0,WSW,3.5,-,N/A,,Clear,240,2013-08-03 14:35:00
9:55 AM,70.0,55.9,61,30.11,10.0,Calm,Calm,-,N/A,,Clear,0,2013-08-03 14:55:00
10:15 AM,71.2,53.8,54,30.12,10.0,SSW,3.5,-,N/A,,Clear,210,2013-08-03 15:15:00
10:35 AM,73.0,48.9,42,30.13,10.0,SSW,3.5,-,N/A,,Clear,210,2013-08-03 15:35:00
10:55 AM,73.6,52.7,48,30.12,10.0,South,5.8,-,N/A,,Clear,180,2013-08-03 15:55:00
11:15 AM,74.7,50.4,42,30.13,10.0,WSW,4.6,-,N/A,,Clear,240,2013-08-03 16:15:00
11:35 AM,75.2,47.5,37,30.12,10.0,NW,4.6,-,N/A,,Clear,320,2013-08-03 16:35:00
11:55 AM,74.7,44.4,34,30.12,10.0,NNE,4.6,-,N/A,,Clear,30,2013-08-03 16:55:00
12:15 PM,75.7,46.6,35,30.12,10.0,Calm,Calm,-,N/A,,Mostly Cloudy,0,2013-08-03 17:15:00
12:35 PM,75.9,47.5,36,30.12,10.0,WSW,3.5,-,N/A,,Scattered Clouds,240,2013-08-03 17:35:00
12:55 PM,77.0,46.9,34,30.12,10.0,NNW,5.8,-,N/A,,Clear,330,2013-08-03 17:55:00
1:15 PM,77.0,45.9,33,30.12,10.0,WNW,10.4,-,N/A,,Scattered Clouds,290,2013-08-03 18:15:00
1:35 PM,78.1,46.8,33,30.12,10.0,NW,9.2,16.1,N/A,,Mostly Cloudy,310,2013-08-03 18:35:00
1:55 PM,77.7,47.1,34,30.13,10.0,NNW,9.2,16.1,N/A,,Scattered Clouds,340,2013-08-03 18:55:00
2:15 PM,77.2,46.9,34,30.12,10.0,NW,8.1,-,N/A,,Scattered Clouds,320,2013-08-03 19:15:00
2:35 PM,77.2,46.0,33,30.11,10.0,NW,6.9,-,N/A,,Scattered Clouds,320,2013-08-03 19:35:00
2:55 PM,77.4,45.7,32,30.11,10.0,NW,9.2,-,N/A,,Scattered Clouds,310,2013-08-03 19:55:00
3:15 PM,77.7,45.3,32,30.11,10.0,NNW,8.1,-,N/A,,Scattered Clouds,340,2013-08-03 20:15:00
3:35 PM,78.3,48.6,35,30.11,10.0,North,10.4,-,N/A,,Clear,350,2013-08-03 20:35:00
3:55 PM,77.4,48.4,36,30.11,10.0,NW,8.1,-,N/A,,Clear,310,2013-08-03 20:55:00
4:15 PM,77.7,49.1,36,30.10,10.0,NNW,11.5,-,N/A,,Scattered Clouds,330,2013-08-03 21:15:00
4:35 PM,76.6,48.2,37,30.11,10.0,North,8.1,-,N/A,,Scattered Clouds,350,2013-08-03 21:35:00
4:55 PM,77.5,48.7,36,30.11,10.0,NNW,8.1,-,N/A,,Scattered Clouds,330,2013-08-03 21:55:00
5:15 PM,77.0,45.3,32,30.11,10.0,NNW,9.2,-,N/A,,Scattered Clouds,330,2013-08-03 22:15:00
5:35 PM,77.2,46.2,33,30.11,10.0,NW,8.1,-,N/A,,Clear,310,2013-08-03 22:35:00
5:55 PM,77.0,45.0,32,30.11,10.0,NW,11.5,17.3,N/A,,Clear,320,2013-08-03 22:55:00
6:15 PM,76.8,45.1,32,30.11,10.0,NNW,8.1,-,N/A,,Clear,330,2013-08-03 23:15:00
6:35 PM,76.3,45.1,33,30.10,10.0,NNW,10.4,-,N/A,,Clear,330,2013-08-03 23:35:00
6:55 PM,75.7,45.5,34,30.11,10.0,NW,8.1,-,N/A,,Clear,320,2013-08-03 23:55:00
7:15 PM,75.2,46.4,36,30.11,10.0,NNW,8.1,-,N/A,,Clear,330,2013-08-04 00:15:00
7:35 PM,74.1,49.3,41,30.11,10.0,NNE,4.6,-,N/A,,Clear,20,2013-08-04 00:35:00
7:55 PM,73.2,50.2,44,30.11,10.0,North,3.5,-,N/A,,Clear,10,2013-08-04 00:55:00
8:15 PM,71.1,50.7,49,30.12,10.0,NNE,3.5,-,N/A,,Clear,20,2013-08-04 01:15:00
8:35 PM,67.5,53.6,61,30.12,10.0,Calm,Calm,-,N/A,,Clear,0,2013-08-04 01:35:00
8:55 PM,65.7,54.3,67,30.12,10.0,Calm,Calm,-,N/A,,Clear,0,2013-08-04 01:55:00
9:15 PM,66.2,53.8,64,30.13,10.0,Calm,Calm,-,N/A,,Clear,0,2013-08-04 02:15:00
9:35 PM,66.0,53.2,63,30.14,10.0,Calm,Calm,-,N/A,,Clear,0,2013-08-04 02:35:00
9:55 PM,62.1,55.4,79,30.15,10.0,Calm,Calm,-,N/A,,Clear,0,2013-08-04 02:55:00
10:15 PM,61.3,54.7,79,30.15,10.0,Calm,Calm,-,N/A,,Clear,0,2013-08-04 03:15:00
10:35 PM,60.6,54.5,80,30.16,10.0,East,3.5,-,N/A,,Clear,90,2013-08-04 03:35:00
10:55 PM,58.5,54.0,85,30.16,10.0,Calm,Calm,-,N/A,,Clear,0,2013-08-04 03:55:00
11:15 PM,58.3,54.1,86,30.16,10.0,Calm,Calm,-,N/A,,Clear,0,2013-08-04 04:15:00
11:35 PM,59.2,54.0,83,30.17,10.0,Calm,Calm,-,N/A,,Clear,0,2013-08-04 04:35:00
11:55 PM,58.1,53.8,86,30.18,10.0,Calm,Calm,-,N/A,,Clear,0,2013-08-04 04:55:00